Location: Chino
(34.0122°N, 117.6889°W)
Time: 13:54:32
(UTC+00:00)

Cosmos 1980 Rocket - Pass Details

Date: 13 February 2026
Orbit: 828 x 849 km, 71.0° (Epoch: 12 March)

Event Time Altitude Azimuth Distance (km) Brightness Sun altitude
Exits shadow 12:59:38 31° 230° (SW) 1,411 3.0 -20.8°
Maximum altitude 13:02:08 56° 293° (WNW) 980 2.2 -20.3°
Drops below altitude 10° 13:07:36 10° 12° (NNE) 2,437 4.7 -19.1°
Sets 13:10:06 0° 16° (NNE) 3,375 5.5 -18.6°
